Location: Mascot Post Office (historical)
(40.2645°N, 99.5462°W)
Time: 16:25:09
(UTC+00:00)

H-2A R/B - Pass Details

Date: 14 July 2020
Orbit: 577 x 656 km, 98.5° (Epoch: 04 August)

Event Time Altitude Azimuth Distance (km) Brightness Sun altitude
Rises 10:06:31 0° 166° (SSE) 2,933 5.2 -12.3°
Reaches altitude 10° 10:08:44 10° 167° (SSE) 2,017 4.4 -12.0°
Maximum altitude 10:13:08 86° 257° (WSW) 634 2.0 -11.4°
Drops below altitude 10° 10:17:27 10° 346° (NNW) 1,985 5.0 -10.7°
Sets 10:19:37 0° 347° (NNW) 2,881 5.9 -10.4°
